This demonstration page uses our WeatherBlox Daily Observations layout. Learn more.

Left ArrowRight Arrow

39.95238, -75.16362

Hourly Observations for August 21, 2022

Temp ( °F °C ) Dew Point ( °F °C ) Humidity (%) Winds ( mph kmh ) Pressure ( in mb ) Visibility ( mi km ) Precip ( " mm )
12:54 am 00:54 Mostly Clear 74 23.3 65 18.3 74 74 Calm 30.12 1020 10 16 0.00 0.00
1:54 am 01:54 Partly Cloudy 73 22.8 67 19.4 81 81 SE 3 6 30.11 1020 10 16 0.00 0.00
2:38 am 02:38 Mostly Cloudy 71 21.7 67 19.4 87 87 SE 5 7 30.12 1020 10 16 0.00 0.00
2:54 am 02:54 Mostly Cloudy 71 21.7 67 19.4 87 87 SE 5 7 30.11 1020 10 16 0.00 0.00
3:15 am 03:15 Partly Cloudy 71 21.7 68 20 90 90 ESE 5 7 30.12 1020 10 16 0.00 0.00
3:54 am 03:54 Partly Cloudy 71 21.7 69 20.6 93 93 SE 5 7 30.12 1020 10 16 0.00 0.00
4:14 am 04:14 Mostly Cloudy 71 21.7 69 20.6 93 93 Calm 30.13 1020 10 16 0.00 0.00
4:54 am 04:54 Cloudy 72 22.2 69 20.6 91 91 SE 5 7 30.12 1020 10 16 0.00 0.00
5:54 am 05:54 Mostly Cloudy 72 22.2 69 20.6 91 91 S 3 6 30.14 1021 10 16 0.00 0.00
6:51 am 06:51 Partly Cloudy 72 22 70 21 94 94 ESE 7 11 30.13 1020 10 16 0.00 0.00
6:54 am 06:54 Partly Cloudy 72 22.2 69 20.6 91 91 ESE 6 9 30.13 1020 10 16 0.00 0.00
7:54 am 07:54 Mostly Cloudy 74 23.3 70 21.1 87 87 Calm 30.14 1021 10 16 0.00 0.00
8:54 am 08:54 Mostly Cloudy 76 24.4 70 21.1 82 82 Calm 30.13 1020 10 16 0.00 0.00
9:54 am 09:54 Mostly Cloudy 79 26.1 70 21.1 74 74 E 6 9 30.12 1020 10 16 0.00 0.00
10:54 am 10:54 Mostly Cloudy 79 26.1 68 20 69 69 S 3 6 30.13 1020 10 16 0.00 0.00
11:54 am 11:54 Mostly Cloudy 81 27.2 68 20 65 65 Calm 30.12 1020 10 16 0.00 0.00
12:54 pm 12:54 Mostly Cloudy 84 28.9 68 20 59 59 S 3 6 30.11 1020 10 16 0.00 0.00
1:54 pm 13:54 Mostly Cloudy 85 29.4 67 19.4 55 55 S 7 11 30.09 1019 10 16 0.00 0.00
2:54 pm 14:54 Mostly Cloudy 86 30 68 20 55 55 SSE 6 9 30.06 1018 10 16 0.00 0.00
3:54 pm 15:54 Cloudy 85 29.4 69 20.6 59 59 WSW 14 22 30.04 1017 10 16 0.00 0.00
4:28 pm 16:28 Cloudy with Light Rain 76 24.4 70 21.1 82 82 SSE 10 17 30.04 1017 10 16 0.01 0.13
4:54 pm 16:54 Cloudy with Light Rain 78 25.6 71 21.7 79 79 SE 5 7 30.03 1017 10 16 0.01 0.13
5:54 pm 17:54 Cloudy 81 27.2 69 20.6 67 67 Calm 30.02 1017 10 16 0.01 0.13
6:54 pm 18:54 Cloudy 80 26.7 71 21.7 74 74 Calm 30.01 1016 10 16 0.00 0.00
7:54 pm 19:54 Cloudy 79 26.1 72 22.2 79 79 SE 7 11 30.01 1016 10 16 0.00 0.00
8:54 pm 20:54 Cloudy 77 25 69 20.6 77 77 SE 7 11 30.02 1017 10 16 0.00 0.00
9:54 pm 21:54 Mostly Cloudy 77 25 68 20 74 74 SE 3 6 30.03 1017 10 16 0.00 0.00
10:54 pm 22:54 Cloudy 76 24.4 70 21.1 82 82 SE 3 6 30.00 1016 10 16 0.00 0.00
11:54 pm 23:54 Cloudy 76 24.4 71 21.7 85 85 ESE 6 9 30.00 1016 10 16 0.01 0.13

Powered by AerisWeather